Airfield :
LOGIN :

Register | Disclaimer

   EN    FR    IT 

 










Legend :    VFR   Marginal VFR   IFR   Intensive IFR   Very Intensive IFR
Visi :
Ceiling :
>= 8 km
>= 3000ft
5 to 8 km
1000 to 3000 ft
1500m to 5 km
500 to 1000 ft
800 to 1500m
200 to 500 ft
< 800m
< 200 ft
Symbols :   Thunderstorms  Fog  Heavy snow  Heavy precipitations  Wind > 20 kt
SIGMETs :     Misc.  Thunderstorms  Icing  Turbulence  Mountain Waves  Volcanic Ashes







- Airport Elevation : 285 ft
- IATA code : OZP


LEMO - Sevilla Moron

CURRENT METAR :
  • 221600Z 09012KT CAVOK 20/03 Q1021 NOSIG

EXPIRED METARs :
  • 221500Z 09012G22KT 050V130 CAVOK 20/02 Q1022 NOSIG
  • 221400Z 08013G23KT 040V120 CAVOK 21/02 Q1022 NOSIG

TAF TAF LEMO
Valid from the 22 at 15:00 until the 23 at 00:00 UTC


221400Z 2215/2224 09011KT CAVOK
No reported NOTAMs for that airfield.



MET'MAP, your aeronautical weather chart ! - Copyright ORBIFLY December 2007 - Disclaimer

ORBIFLY MET'MAP TEAM :

Programming & Development : Alexandra Zaïnal
Concept & Development : Baudouin d'Aumeries
Co-Development & Prog : Marc-Olivier Méhu
Technical & hardware support : Manuel Goepfert

Contact : metmap@orbifly.com




SOURCES & CREDITS :

   NOAA